YUBILEINY (RS-30)

Last updated on Thu Jan 15 2026 00:03:09 GMT+0000 (Coordinated Universal Time)

1 32953U 08025A 26014.62628248 .00000055 00000+0 32839-3 0 9995 2 32953 82.5025 90.9697 0018248 286.6718 73.2359 12.43173440800610

Satellite not in orbit

YUBILEINY (RS-30)